This is the latest recevied weather packets stored in our database for station/object N4TLC. If no packets are shown the sender has not sent any weather packets the latest 10 day(s).
| Time | Temp. | Humidity | Pressure | Rain* | Wind** | Luminosity | Snow |
|---|---|---|---|---|---|---|---|
| 1777725942 | 11.67° C | 61% | 1015.3 hPa | 0 mm | - | 59 W/m² | - |
| 1777725640 | 11.67° C | 63% | 1015.1 hPa | 0 mm | - | 65 W/m² | - |
| 1777725338 | 11.67° C | 62% | 1015.3 hPa | 0 mm | - | 95 W/m² | - |
| 1777725034 | 11.67° C | 62% | 1015.2 hPa | 0 mm | - | 64 W/m² | - |
| 1777724731 | 11.67° C | 61% | 1015.3 hPa | 0 mm | - | 48 W/m² | - |
| 1777724428 | 11.67° C | 62% | 1015.5 hPa | 0 mm | - | 36 W/m² | - |
| 1777724126 | 11.67° C | 61% | 1015.4 hPa | 0 mm | - | 61 W/m² | - |
| 1777723823 | 11.67° C | 62% | 1015.7 hPa | 0 mm | - | 31 W/m² | - |
| 1777723519 | 11.67° C | 63% | 1015.3 hPa | 0 mm | - | 42 W/m² | - |
| 1777723216 | 11.67° C | 63% | 1015.4 hPa | 0 mm | - | 67 W/m² | - |
| 1777722914 | 11.67° C | 64% | 1015.4 hPa | 0 mm | - | 34 W/m² | - |
| 1777722610 | 11.67° C | 64% | 1015.4 hPa | 0 mm | - | 32 W/m² | - |
| 1777722307 | 11.67° C | 64% | 1015.2 hPa | 0 mm | - | 26 W/m² | - |
| 1777722003 | 11.67° C | 64% | 1015.1 hPa | 0 mm | - | 30 W/m² | - |
| 1777721701 | 11.67° C | 64% | 1015.1 hPa | 0 mm | - | 24 W/m² | - |
| 1777721400 | 11.67° C | 64% | 1015 hPa | 0 mm | - | 25 W/m² | - |
| 1777721097 | 11.67° C | 65% | 1015.2 hPa | 0 mm | - | 20 W/m² | - |
| 1777720794 | 11.67° C | 65% | 1015 hPa | 0 mm | - | 16 W/m² | - |
| 1777720491 | 11.67° C | 66% | 1015 hPa | 0 mm | - | 14 W/m² | - |
| 1777720188 | 11.67° C | 66% | 1015.1 hPa | 0 mm | - | 15 W/m² | - |
| 1777719886 | 11.67° C | 66% | 1015 hPa | 0 mm | - | 14 W/m² | - |
| 1777719583 | 11.67° C | 66% | 1015.2 hPa | 0 mm | - | 10 W/m² | - |
| 1777719281 | 11.67° C | 66% | 1015.2 hPa | 0 mm | - | 8 W/m² | - |
| 1777718978 | 11.67° C | 66% | 1014.7 hPa | 0 mm | - | 7 W/m² | - |
| 1777718675 | 11.67° C | 66% | 1014.9 hPa | 0 mm | - | 4 W/m² | - |
* Rain latest hour (hover to see other rain measurements)
** Current wind speed in m/s (hover to see current wind gust speed)